Weather in Kigoma

Tanzania     4°53′50″S   29°39′23″E
temp.,
°C
wind,
m/s
gust,
m/s
humid.,
%
clouds,
%
prec.,
mm/h
press.,
hPa
HPBL,
m
24 january, mon
mon2400:00+21ne118344 0.0 101390
03:00+19ne228692 0.0 101192
06:00+20ene228383 0.4 101284
09:00+22ene227981 0.7 1013172
12:00+25w2267100 0.2 1011652
15:00+24sw3373100 0.3 1009369
18:00+25ssw116999 0.1 1007275
21:00+22ene1174100 0.1 101097
25 january, tue
tue2500:00+22e1176100 0.0 101181
03:00+21ene2285100 1.7 100966
06:00+20ene2287100 1.0 101066
09:00+21ne1184100 2.4 101297
12:00+23ene0082100 0.0 1011194
15:00+24sw2378100 1.2 1008306
18:00+24w1178100 2.6 1008118
21:00+22e1179100 3.0 100969
26 january, wed
wed2600:00+22ese1182100 0.0 101195
03:00+21se3488100 0.6 1009234
06:00+21s3689100 0.8 1010365
09:00+23s3585100 1.5 1012508
12:00+24s3379100 0.1 1011637
15:00+25sw3273100 0.3 1008692
18:00+24ssw2280100 1.1 1007194
21:00+23sse1278100 1.9 1009153
27 january, thu
thu2700:00+23ese1279100 0.0 1010143
03:00+21ene2286100 0.0 100982
06:00+20ne21878 0.3 101150
09:00+23nne11805 0.3 1012183
12:00+25sw2274100 0.5 1011558
15:00+25s2377100 1.7 1008266
18:00+25s2274100 0.7 1007250
21:00+23se1278100 1.6 1010164
28 january, fri
fri2800:00+22e118265 0.4 101163
03:00+21e118495 0.4 100990
06:00+21ne1188100 0.0 101075
09:00+22ne118585 0.2 1012135
12:00+25wsw22746 0.1 1010677
15:00+26ssw217396 0.1 1008590
18:00+25ssw1177100 1.9 1007120
21:00+23ese227867 2.5 100978